TimeCST,TemperatureF,Dew PointF,Humidity,Sea Level PressureIn,VisibilityMPH,Wind Direction,Wind SpeedMPH,Gust SpeedMPH,PrecipitationIn,Events,Conditions,WindDirDegrees,DateUTC
12:53 AM,55.9,45.0,67,29.99,10.0,South,10.4,-,N/A,,Mostly Cloudy,190,2012-12-23 06:53:00
1:53 AM,55.9,46.0,69,29.97,10.0,South,10.4,-,N/A,,Mostly Cloudy,180,2012-12-23 07:53:00
2:53 AM,55.9,46.9,72,29.95,10.0,South,9.2,-,N/A,,Mostly Cloudy,180,2012-12-23 08:53:00
3:53 AM,54.0,46.9,77,29.94,10.0,South,9.2,-,N/A,,Mostly Cloudy,190,2012-12-23 09:53:00
4:53 AM,53.1,46.9,80,29.92,10.0,South,8.1,-,N/A,,Overcast,190,2012-12-23 10:53:00
5:53 AM,52.0,48.0,86,29.92,10.0,South,8.1,-,N/A,,Overcast,190,2012-12-23 11:53:00
6:53 AM,51.1,48.0,89,29.91,10.0,South,8.1,-,N/A,,Overcast,180,2012-12-23 12:53:00
7:53 AM,52.0,48.9,89,29.90,10.0,South,8.1,-,N/A,,Clear,180,2012-12-23 13:53:00
8:53 AM,55.9,51.1,84,29.91,10.0,South,9.2,-,N/A,,Mostly Cloudy,190,2012-12-23 14:53:00
9:53 AM,61.0,50.0,67,29.91,10.0,SW,16.1,-,N/A,,Mostly Cloudy,220,2012-12-23 15:53:00
10:53 AM,63.0,45.0,52,29.90,10.0,SW,15.0,-,N/A,,Mostly Cloudy,230,2012-12-23 16:53:00
11:53 AM,64.0,42.1,45,29.87,10.0,WSW,13.8,-,N/A,,Mostly Cloudy,250,2012-12-23 17:53:00
12:53 PM,64.0,36.0,35,29.84,10.0,SW,13.8,-,N/A,,Mostly Cloudy,230,2012-12-23 18:53:00
1:53 PM,64.0,32.0,30,29.83,10.0,WSW,12.7,-,N/A,,Overcast,240,2012-12-23 19:53:00
2:53 PM,64.0,21.0,19,29.82,10.0,WSW,11.5,-,N/A,,Mostly Cloudy,250,2012-12-23 20:53:00
3:53 PM,62.1,19.0,19,29.83,10.0,West,12.7,-,N/A,,Mostly Cloudy,260,2012-12-23 21:53:00
4:53 PM,61.0,19.0,20,29.84,10.0,West,11.5,-,N/A,,Mostly Cloudy,280,2012-12-23 22:53:00
5:53 PM,54.0,25.0,33,29.87,10.0,NNW,12.7,-,N/A,,Mostly Cloudy,330,2012-12-23 23:53:00
6:53 PM,50.0,25.0,38,29.86,10.0,NNW,6.9,-,N/A,,Mostly Cloudy,330,2012-12-24 00:53:00
7:53 PM,48.0,26.1,42,29.87,10.0,NNW,6.9,-,N/A,,Mostly Cloudy,330,2012-12-24 01:53:00
8:53 PM,46.9,26.1,44,29.88,10.0,North,9.2,-,N/A,,Mostly Cloudy,350,2012-12-24 02:53:00
9:53 PM,45.0,27.0,49,29.90,10.0,NNW,8.1,-,N/A,,Scattered Clouds,330,2012-12-24 03:53:00
10:53 PM,46.0,28.0,50,29.92,10.0,NNW,10.4,-,N/A,,Partly Cloudy,330,2012-12-24 04:53:00
11:53 PM,45.0,28.9,53,29.92,10.0,NNW,15.0,-,N/A,,Partly Cloudy,330,2012-12-24 05:53:00